TimeCDT,TemperatureF,Dew PointF,Humidity,Sea Level PressureIn,VisibilityMPH,Wind Direction,Wind SpeedMPH,Gust SpeedMPH,PrecipitationIn,Events,Conditions,WindDirDegrees,DateUTC
12:15 AM,69.8,66.6,89,30.25,10.0,Calm,Calm,-,N/A,,Clear,0,2013-07-15 05:15:00
12:35 AM,69.3,65.8,89,30.25,10.0,Calm,Calm,-,N/A,,Clear,0,2013-07-15 05:35:00
12:55 AM,68.7,65.8,90,30.25,7.0,Calm,Calm,-,N/A,,Clear,0,2013-07-15 05:55:00
1:15 AM,68.2,65.5,91,30.25,7.0,Calm,Calm,-,N/A,,Clear,0,2013-07-15 06:15:00
1:35 AM,68.4,65.8,92,30.25,7.0,Calm,Calm,-,N/A,,Clear,0,2013-07-15 06:35:00
1:55 AM,67.5,64.9,92,30.26,5.0,Calm,Calm,-,N/A,,Clear,0,2013-07-15 06:55:00
2:15 AM,67.5,64.9,92,30.26,5.0,Calm,Calm,-,N/A,,Clear,0,2013-07-15 07:15:00
2:35 AM,67.5,65.3,93,30.26,5.0,Calm,Calm,-,N/A,,Clear,0,2013-07-15 07:35:00
2:55 AM,66.4,64.0,92,30.26,4.0,Calm,Calm,-,N/A,,Clear,0,2013-07-15 07:55:00
3:15 AM,67.5,65.3,93,30.26,7.0,Calm,Calm,-,N/A,,Clear,0,2013-07-15 08:15:00
3:35 AM,66.4,64.4,93,30.26,5.0,Calm,Calm,-,N/A,,Clear,0,2013-07-15 08:35:00
3:55 AM,65.7,63.5,93,30.26,1.5,Calm,Calm,-,N/A,,Mist,0,2013-07-15 08:55:00
4:15 AM,66.2,64.2,93,30.26,4.0,Calm,Calm,-,N/A,,Clear,0,2013-07-15 09:15:00
4:35 AM,65.8,63.9,93,30.27,4.0,Calm,Calm,-,N/A,,Clear,0,2013-07-15 09:35:00
4:55 AM,65.1,63.1,93,30.27,1.2,Calm,Calm,-,N/A,,Mist,0,2013-07-15 09:55:00
5:15 AM,65.3,63.3,93,30.27,4.0,Calm,Calm,-,N/A,,Clear,0,2013-07-15 10:15:00
5:35 AM,64.8,62.8,93,30.27,1.8,Calm,Calm,-,N/A,,Mist,0,2013-07-15 10:35:00
5:55 AM,64.8,62.8,93,30.28,3.0,Calm,Calm,-,N/A,,Clear,0,2013-07-15 10:55:00
6:15 AM,65.7,63.7,93,30.28,4.0,Calm,Calm,-,N/A,,Clear,0,2013-07-15 11:15:00
6:35 AM,67.5,65.5,93,30.29,5.0,Calm,Calm,-,N/A,,Clear,0,2013-07-15 11:35:00
6:55 AM,68.4,66.4,93,30.29,5.0,Calm,Calm,-,N/A,,Clear,0,2013-07-15 11:55:00
7:15 AM,69.8,67.6,93,30.29,7.0,Calm,Calm,-,N/A,,Clear,0,2013-07-15 12:15:00
7:35 AM,72.1,68.2,87,30.30,10.0,Calm,Calm,-,N/A,,Clear,0,2013-07-15 12:35:00
7:55 AM,75.4,68.2,78,30.30,10.0,Calm,Calm,-,N/A,,Clear,0,2013-07-15 12:55:00
8:15 AM,77.5,68.2,73,30.30,10.0,Calm,Calm,-,N/A,,Clear,0,2013-07-15 13:15:00
8:35 AM,78.4,67.8,70,30.30,10.0,Calm,Calm,-,N/A,,Clear,0,2013-07-15 13:35:00
8:55 AM,80.2,66.9,64,30.30,10.0,SSE,4.6,-,N/A,,Clear,150,2013-07-15 13:55:00
9:15 AM,81.7,67.6,62,30.30,10.0,SSE,4.6,-,N/A,,Clear,150,2013-07-15 14:15:00
9:35 AM,82.6,68.2,62,30.30,10.0,SE,4.6,-,N/A,,Clear,140,2013-07-15 14:35:00
9:55 AM,83.8,68.2,59,30.30,10.0,South,5.8,-,N/A,,Clear,170,2013-07-15 14:55:00
10:15 AM,84.9,68.7,58,30.30,10.0,South,5.8,-,N/A,,Clear,180,2013-07-15 15:15:00
10:35 AM,85.1,68.7,58,30.30,10.0,South,5.8,-,N/A,,Clear,170,2013-07-15 15:35:00
10:55 AM,86.7,67.3,52,30.30,10.0,SSE,6.9,-,N/A,,Clear,150,2013-07-15 15:55:00
11:15 AM,87.8,67.8,51,30.30,10.0,South,4.6,-,N/A,,Scattered Clouds,180,2013-07-15 16:15:00
11:35 AM,87.1,67.3,52,30.30,10.0,SE,5.8,-,N/A,,Mostly Cloudy,140,2013-07-15 16:35:00
11:55 AM,89.4,67.1,48,30.30,10.0,South,3.5,-,N/A,,Scattered Clouds,190,2013-07-15 16:55:00
12:15 PM,90.5,67.5,47,30.30,10.0,SE,4.6,-,N/A,,Clear,130,2013-07-15 17:15:00
12:35 PM,90.3,66.2,45,30.29,10.0,ESE,5.8,-,N/A,,Scattered Clouds,120,2013-07-15 17:35:00
12:55 PM,89.8,66.7,46,30.29,10.0,South,8.1,-,N/A,,Scattered Clouds,170,2013-07-15 17:55:00
1:15 PM,91.0,67.8,46,30.29,10.0,SSE,10.4,-,N/A,,Scattered Clouds,150,2013-07-15 18:15:00
1:35 PM,92.3,65.7,41,30.28,10.0,SE,10.4,-,N/A,,Scattered Clouds,130,2013-07-15 18:35:00
1:55 PM,91.9,66.0,42,30.28,10.0,SE,8.1,-,N/A,,Scattered Clouds,140,2013-07-15 18:55:00
2:15 PM,92.3,64.6,40,30.27,10.0,SE,9.2,-,N/A,,Clear,140,2013-07-15 19:15:00
2:35 PM,93.4,64.8,39,30.27,10.0,SE,9.2,-,N/A,,Scattered Clouds,130,2013-07-15 19:35:00
2:55 PM,92.8,64.8,39,30.26,10.0,SSE,8.1,-,N/A,,Scattered Clouds,150,2013-07-15 19:55:00
3:15 PM,92.3,65.3,41,30.26,10.0,SE,8.1,-,N/A,,Scattered Clouds,140,2013-07-15 20:15:00
3:35 PM,88.9,66.2,47,30.26,10.0,SE,5.8,-,N/A,,Mostly Cloudy,140,2013-07-15 20:35:00
3:55 PM,90.5,66.0,44,30.26,10.0,SE,5.8,-,N/A,,Overcast,140,2013-07-15 20:55:00
4:15 PM,91.8,65.8,42,30.25,10.0,SE,6.9,-,N/A,,Mostly Cloudy,130,2013-07-15 21:15:00
4:35 PM,92.3,65.1,41,30.25,10.0,SE,5.8,-,N/A,,Scattered Clouds,130,2013-07-15 21:35:00
4:55 PM,92.3,64.8,40,30.24,10.0,SSE,8.1,-,N/A,,Clear,150,2013-07-15 21:55:00
5:15 PM,92.3,65.5,41,30.24,10.0,SE,6.9,-,N/A,,Clear,140,2013-07-15 22:15:00
5:35 PM,92.3,65.7,41,30.23,10.0,SE,6.9,-,N/A,,Clear,140,2013-07-15 22:35:00
5:55 PM,92.3,66.7,43,30.23,10.0,SSE,5.8,-,N/A,,Clear,160,2013-07-15 22:55:00
6:15 PM,90.9,66.0,44,30.23,10.0,SE,8.1,-,N/A,,Clear,130,2013-07-15 23:15:00
6:35 PM,90.5,66.4,45,30.23,10.0,SE,6.9,-,N/A,,Clear,140,2013-07-15 23:35:00
6:55 PM,88.2,67.5,50,30.23,10.0,ESE,4.6,-,N/A,,Clear,120,2013-07-15 23:55:00
7:15 PM,87.8,67.6,51,30.23,10.0,SE,8.1,-,N/A,,Clear,140,2013-07-16 00:15:00
7:35 PM,86.9,68.9,55,30.23,10.0,ESE,5.8,-,N/A,,Clear,120,2013-07-16 00:35:00
7:55 PM,85.5,68.9,57,30.23,10.0,SE,5.8,-,N/A,,Clear,130,2013-07-16 00:55:00
8:15 PM,84.2,68.9,60,30.23,10.0,SE,4.6,-,N/A,,Clear,130,2013-07-16 01:15:00
8:35 PM,83.1,69.8,64,30.23,10.0,SE,4.6,-,N/A,,Clear,140,2013-07-16 01:35:00
8:55 PM,82.4,69.8,66,30.23,10.0,SE,3.5,-,N/A,,Clear,130,2013-07-16 01:55:00
9:15 PM,81.3,70.2,69,30.24,10.0,SE,3.5,-,N/A,,Clear,130,2013-07-16 02:15:00
10:15 PM,76.5,70.2,81,30.26,10.0,Calm,Calm,-,N/A,,Clear,0,2013-07-16 03:15:00
10:35 PM,76.8,70.9,82,30.26,10.0,Calm,Calm,-,N/A,,Clear,0,2013-07-16 03:35:00
10:55 PM,76.5,70.9,83,30.26,10.0,Calm,Calm,-,N/A,,Clear,0,2013-07-16 03:55:00
11:15 PM,75.4,71.2,87,30.26,10.0,Calm,Calm,-,N/A,,Clear,0,2013-07-16 04:15:00
11:35 PM,75.4,71.1,86,30.26,10.0,Calm,Calm,-,N/A,,Clear,0,2013-07-16 04:35:00
11:55 PM,75.2,70.9,86,30.26,10.0,Calm,Calm,-,N/A,,Clear,0,2013-07-16 04:55:00